Weather History for KENW - February, 2014

Change the Weather History Date:

Sunday, February 9, 2014

  Actual Average Record
Temperature  
Mean Temperature 8 °F -  
Max Temperature 17 °F 29 °F 51 °F (1999)
Min Temperature 0 °F 11 °F -10 °F (1975)
Degree Days  
Heating Degree Days 56    
Moisture  
Dew Point 2 °F    
Average Humidity 74    
Maximum Humidity 88    
Minimum Humidity 56    
Precipitation  
Precipitation 0.00 in - - ()
Sea Level Pressure  
Sea Level Pressure 30.19 in    
Wind  
Wind Speed 6 mph (WNW)    
Max Wind Speed 13 mph    
Max Gust Speed -    
Visibility 8 miles    
Events Snow    
Averages and records for this station are not official NWS values.
T = Trace of Precipitation, MM = Missing Value Source: NWS Daily Summary

Daily Weather History Graph

Daily Weather History Graph

Search for Another Location

Airport or City:

Trip Planner

Search our weather history database for the weather conditions in past years. The results will help you decide how hot, cold, wet, or windy it might be!

Date:

Astronomy

Feb. 09, 2014 Rise Set
Actual Time 6:56 AM CST 5:15 PM CST
Civil Twilight 6:27 AM CST 5:45 PM CST
Nautical Twilight 5:53 AM CST 6:18 PM CST
Astronomical Twilight 5:21 AM CST 6:51 PM CST
Moon 12:53 PM CST (2/9) 3:03 AM CST (2/9)
Length of Visible Light 11h 18m
Length of Day
10h 19m
Waxing Gibbous, 77% of the Moon is Illuminated
Feb 9
Waxing Gibbous
Feb 14
Full
Feb 22
Last Quarter
Mar 1
New
Mar 8
First Quarter

Hourly Weather History & Observations

Time (CST) Temp. Windchill Dew Point Humidity Pressure Visibility Wind Dir Wind Speed Gust Speed Precip Events Conditions
12:53 AM 12.0 °F 5.9 °F 8.1 °F 84% 30.15 in 5.0 mi WNW 3.5 mph - 0.00 in Snow Light Snow
1:53 AM 12.0 °F 1.5 °F 8.1 °F 84% 30.15 in 8.0 mi WNW 6.9 mph - 0.00 in   Overcast
2:53 AM 10.9 °F 2.9 °F 7.0 °F 84% 30.13 in 8.0 mi WNW 4.6 mph - N/A   Overcast
3:53 AM 7.0 °F 0.1 °F 3.9 °F 87% 30.15 in 7.0 mi West 3.5 mph - N/A   Partly Cloudy
4:53 AM 7.0 °F 0.1 °F 3.9 °F 87% 30.14 in 6.0 mi West 3.5 mph - N/A   Clear
5:53 AM 3.9 °F - -0.0 °F 84% 30.15 in 6.0 mi Calm Calm - N/A   Clear
6:53 AM 3.0 °F -8.0 °F -0.0 °F 87% 30.15 in 4.0 mi West 5.8 mph - N/A   Clear
7:53 AM 3.9 °F -3.4 °F 1.0 °F 88% 30.17 in 4.0 mi Variable 3.5 mph - N/A   Clear
8:53 AM 7.0 °F -4.5 °F 3.0 °F 84% 30.17 in 5.0 mi West 6.9 mph - N/A   Clear
9:53 AM 10.0 °F -1.9 °F 3.9 °F 76% 30.18 in 6.0 mi West 8.1 mph - N/A   Haze
10:53 AM 12.0 °F 0.5 °F 6.1 °F 77% 30.18 in 8.0 mi WNW 8.1 mph - N/A   Clear
11:53 AM 15.1 °F 2.5 °F 6.1 °F 68% 30.17 in 9.0 mi WNW 10.4 mph - N/A   Clear
12:53 PM 16.0 °F 3.6 °F 5.0 °F 62% 30.15 in 10.0 mi West 10.4 mph - N/A   Clear
1:53 PM 17.1 °F 3.6 °F 5.0 °F 59% 30.14 in 10.0 mi WNW 12.7 mph - N/A   Clear
2:53 PM 16.0 °F 2.3 °F 5.0 °F 62% 30.17 in 10.0 mi WNW 12.7 mph - N/A   Partly Cloudy
3:15 PM 16.0 °F 3.6 °F 5.0 °F 62% 30.13 in 10.0 mi NW 10.4 mph - N/A   Mostly Cloudy
3:53 PM 17.1 °F 4.3 °F 3.9 °F 56% 30.20 in 10.0 mi WNW 11.5 mph - N/A   Mostly Cloudy
4:53 PM 14.0 °F 2.9 °F 3.0 °F 62% 30.21 in 10.0 mi WNW 8.1 mph - N/A   Mostly Cloudy
5:00 PM 14.0 °F 2.9 °F 3.0 °F 62% 30.16 in 10.0 mi West 8.1 mph - N/A   Scattered Clouds
5:53 PM 9.0 °F -0.9 °F -0.0 °F 67% 30.23 in 10.0 mi West 5.8 mph - N/A   Scattered Clouds
6:53 PM 3.9 °F -6.9 °F -2.9 °F 73% 30.25 in 9.0 mi West 5.8 mph - N/A   Clear
7:53 PM -0.0 °F -14.2 °F -6.0 °F 76% 30.26 in 8.0 mi West 8.1 mph - N/A   Clear
8:53 PM 3.9 °F -8.2 °F -2.0 °F 76% 30.29 in 7.0 mi West 6.9 mph - N/A   Clear
9:53 PM 3.0 °F -9.3 °F -2.0 °F 80% 30.29 in 7.0 mi West 6.9 mph - N/A   Clear
10:53 PM -0.0 °F -15.3 °F -5.1 °F 79% 30.30 in 7.0 mi WNW 9.2 mph - N/A   Clear
11:53 PM 3.9 °F -12.2 °F -7.1 °F 60% 30.30 in 10.0 mi WNW 11.5 mph - N/A   Clear